Project,Study,Ord_Occ,Event_Num,Date_Time_UTC,Date_Time_PST,Lat_Dec,Lon_Dec,Sta_ID,Line,Sta,Depth,Pressure,Temp0,Temp1,Salt0,CorrSalt0,Salt1,CorrSalt1,O2ml/L,AveCorrO2ml/L,StaCorrO2ml/L,FluorV,AveEstChl,StaEstChl,ISUSV,AveEstNO3,StaEstNO3,SigThetaTS0,SigThetaTS1,BAT,XMiss,SPAR,PAR,BTL_Depth,BTL_Temp,BTL_Salt,BTL_O2ml/L,BTL_Chl,BTL_Pha,BTL_NO3
CalCOFI,0701JD,063,625,28-Jan-2007 5:13:03 AM,27-Jan-2007 9:13:03 PM,34.15082,-121.15068,080.0 060.0,080.0,060.0,514.000,518.349,6.0871,6.0869,34.3127,34.3114,34.3097,34.3098,0.31390,0.35,0.37,0.0256,,,1.7553,41.03,40.074,27.0043,27.0019,0.4020,90.4386,4.4655e+00,9.9990e+03,,,,,,,
CalCOFI,0701JD,063,625,28-Jan-2007 5:13:15 AM,27-Jan-2007 9:13:15 PM,34.15082,-121.15068,080.0 060.0,080.0,060.0,513.000,517.339,6.1119,6.1151,34.3131,34.3118,34.3098,34.3099,0.31527,0.35,0.37,0.0253,,,1.7387,40.55,39.545,27.0015,26.9984,0.4014,90.4514,4.3785e+00,9.9990e+03,513,6.09 ,34.310,  .31,,,39.8
CalCOFI,0701JD,063,625,28-Jan-2007 5:13:25 AM,27-Jan-2007 9:13:25 PM,34.15082,-121.15068,080.0 060.0,080.0,060.0,512.000,516.329,6.1775,6.1787,34.3131,34.3118,34.3088,34.3089,0.31860,0.35,0.38,0.0262,,,1.7427,40.66,39.672,26.9930,26.9895,0.4003,90.4752,4.2569e+00,9.9990e+03,,,,,,,
CalCOFI,0701JD,063,625,28-Jan-2007 5:13:26 AM,27-Jan-2007 9:13:26 PM,34.15082,-121.15068,080.0 060.0,080.0,060.0,511.000,515.320,6.2020,6.2035,34.3113,34.3100,34.3083,34.3084,0.32053,0.36,0.38,0.0257,,,1.7606,41.19,40.243,26.9885,26.9860,0.4011,90.4576,4.2059e+00,9.9990e+03,,,,,,,
CalCOFI,0701JD,063,625,28-Jan-2007 5:13:27 AM,27-Jan-2007 9:13:27 PM,34.15082,-121.15068,080.0 060.0,080.0,060.0,510.000,514.310,6.2122,6.2123,34.3108,34.3095,34.3083,34.3084,0.32130,0.36,0.38,0.0252,,,1.7322,40.36,39.338,26.9868,26.9848,0.4018,90.4417,4.1733e+00,9.9990e+03,,,,,,,
CalCOFI,0701JD,063,625,28-Jan-2007 5:13:28 AM,27-Jan-2007 9:13:28 PM,34.15082,-121.15068,080.0 060.0,080.0,060.0,509.000,513.300,6.2157,6.2166,34.3105,34.3092,34.3082,34.3083,0.32231,0.36,0.38,0.0257,,,1.7417,40.64,39.640,26.9861,26.9841,0.4024,90.4290,4.3179e+00,9.9990e+03,,,,,,,
CalCOFI,0701JD,063,625,28-Jan-2007 5:13:29 AM,27-Jan-2007 9:13:29 PM,34.15082,-121.15068,080.0 060.0,080.0,060.0,508.000,512.290,6.2154,6.2163,34.3106,34.3093,34.3080,34.3081,0.32331,0.36,0.38,0.0253,,,1.7297,40.28,39.258,26.9862,26.9840,0.4010,90.4600,4.9237e+00,9.9990e+03,,,,,,,
CalCOFI,0701JD,063,625,28-Jan-2007 5:13:30 AM,27-Jan-2007 9:13:30 PM,34.15082,-121.15068,080.0 060.0,080.0,060.0,507.000,511.281,6.2165,6.2169,34.3102,34.3089,34.3080,34.3081,0.32414,0.36,0.39,0.0255,,,1.7180,39.94,38.885,26.9857,26.9839,0.4008,90.4639,4.5094e+00,9.9990e+03,,,,,,,
CalCOFI,0701JD,063,625,28-Jan-2007 5:13:31 AM,27-Jan-2007 9:13:31 PM,34.15082,-121.15068,080.0 060.0,080.0,060.0,506.000,510.271,6.2176,6.2181,34.3103,34.3090,34.3079,34.3080,0.32514,0.36,0.39,0.0255,,,1.7472,40.80,39.816,26.9857,26.9838,0.4013,90.4540,4.5117e+00,9.9990e+03,,,,,,,
CalCOFI,0701JD,063,625,28-Jan-2007 5:13:32 AM,27-Jan-2007 9:13:32 PM,34.15082,-121.15068,080.0 060.0,080.0,060.0,505.000,509.261,6.2188,6.2198,34.3103,34.3090,34.3079,34.3080,0.32503,0.36,0.39,0.0256,,,1.7603,41.18,40.234,26.9855,26.9835,0.4011,90.4589,4.4269e+00,9.9990e+03,,,,,,,
CalCOFI,0701JD,063,625,28-Jan-2007 5:13:33 AM,27-Jan-2007 9:13:33 PM,34.15082,-121.15068,080.0 060.0,080.0,060.0,504.000,508.252,6.2196,6.2197,34.3101,34.3088,34.3078,34.3079,0.32557,0.36,0.39,0.0253,,,1.7329,40.38,39.360,26.9852,26.9834,0.4011,90.4582,4.4798e+00,9.9990e+03,,,,,,,
CalCOFI,0701JD,063,625,28-Jan-2007 5:13:35 AM,27-Jan-2007 9:13:35 PM,34.15082,-121.15068,080.0 060.0,080.0,060.0,503.000,507.242,6.2229,6.2246,34.3102,34.3089,34.3074,34.3075,0.32690,0.36,0.39,0.0259,,,1.7215,40.04,38.996,26.9849,26.9824,0.4011,90.4572,4.6583e+00,9.9990e+03,,,,,,,
CalCOFI,0701JD,063,625,28-Jan-2007 5:13:36 AM,27-Jan-2007 9:13:36 PM,34.15082,-121.15068,080.0 060.0,080.0,060.0,502.000,506.232,6.2355,6.2364,34.3094,34.3081,34.3068,34.3069,0.32796,0.37,0.39,0.0258,,,1.7261,40.18,39.143,26.9826,26.9804,0.4014,90.4525,4.3395e+00,9.9990e+03,,,,,,,
CalCOFI,0701JD,063,625,28-Jan-2007 5:13:37 AM,27-Jan-2007 9:13:37 PM,34.15082,-121.15068,080.0 060.0,080.0,060.0,501.000,505.223,6.2498,6.2496,34.3091,34.3078,34.3064,34.3065,0.32938,0.37,0.39,0.0259,,,1.7326,40.37,39.350,26.9806,26.9784,0.4012,90.4568,4.5045e+00,9.9990e+03,,,,,,,
CalCOFI,0701JD,063,625,28-Jan-2007 5:13:38 AM,27-Jan-2007 9:13:38 PM,34.15082,-121.15068,080.0 060.0,080.0,060.0,500.000,504.213,6.2624,6.2631,34.3085,34.3072,34.3056,34.3057,0.33049,0.37,0.39,0.0258,,,1.7348,40.43,39.420,26.9785,26.9761,0.4015,90.4482,4.4232e+00,9.9990e+03,,,,,,,
CalCOFI,0701JD,063,625,28-Jan-2007 5:13:39 AM,27-Jan-2007 9:13:39 PM,34.15082,-121.15068,080.0 060.0,080.0,060.0,499.000,503.204,6.2821,6.2820,34.3083,34.3070,34.3049,34.3050,0.33265,0.37,0.40,0.0259,,,1.7447,40.72,39.736,26.9757,26.9731,0.4012,90.4566,4.6123e+00,9.9990e+03,,,,,,,
CalCOFI,0701JD,063,625,28-Jan-2007 5:13:39 AM,27-Jan-2007 9:13:39 PM,34.15082,-121.15068,080.0 060.0,080.0,060.0,498.000,502.194,6.2990,6.2995,34.3067,34.3054,34.3040,34.3041,0.33479,0.37,0.40,0.0249,,,1.7417,40.64,39.640,26.9723,26.9701,0.4010,90.4612,4.5861e+00,9.9990e+03,,,,,,,
CalCOFI,0701JD,063,625,28-Jan-2007 5:13:40 AM,27-Jan-2007 9:13:40 PM,34.15082,-121.15068,080.0 060.0,080.0,060.0,497.000,501.184,6.3026,6.3022,34.3063,34.3050,34.3042,34.3043,0.33687,0.38,0.40,0.0256,,,1.7421,40.65,39.653,26.9715,26.9699,0.4009,90.4638,4.3737e+00,9.9990e+03,,,,,,,
CalCOFI,0701JD,063,625,28-Jan-2007 5:13:41 AM,27-Jan-2007 9:13:41 PM,34.15082,-121.15068,080.0 060.0,080.0,060.0,496.000,500.175,6.3064,6.3076,34.3065,34.3052,34.3040,34.3041,0.33768,0.38,0.40,0.0260,,,1.7438,40.70,39.707,26.9712,26.9690,0.4016,90.4460,4.2091e+00,9.9990e+03,,,,,,,
CalCOFI,0701JD,063,625,28-Jan-2007 5:13:42 AM,27-Jan-2007 9:13:42 PM,34.15082,-121.15068,080.0 060.0,080.0,060.0,495.000,499.165,6.3160,6.3159,34.3058,34.3045,34.3034,34.3035,0.33885,0.38,0.40,0.0251,,,1.7256,40.16,39.127,26.9694,26.9675,0.4009,90.4634,3.9266e+00,9.9990e+03,,,,,,,
CalCOFI,0701JD,063,625,28-Jan-2007 5:13:43 AM,27-Jan-2007 9:13:43 PM,34.15082,-121.15075,080.0 060.0,080.0,060.0,494.000,498.155,6.3243,6.3249,34.3052,34.3039,34.3030,34.3031,0.34064,0.38,0.41,0.0254,,,1.6948,39.26,38.145,26.9678,26.9659,0.4009,90.4624,4.3745e+00,9.9990e+03,,,,,,,
CalCOFI,0701JD,063,625,28-Jan-2007 5:13:44 AM,27-Jan-2007 9:13:44 PM,34.15082,-121.15084,080.0 060.0,080.0,060.0,493.000,497.146,6.3278,6.3284,34.3052,34.3039,34.3027,34.3028,0.34253,0.38,0.41,0.0255,,,1.7300,40.29,39.267,26.9673,26.9653,0.4012,90.4565,4.3521e+00,9.9990e+03,,,,,,,
CalCOFI,0701JD,063,625,28-Jan-2007 5:13:45 AM,27-Jan-2007 9:13:45 PM,34.15082,-121.15084,080.0 060.0,080.0,060.0,492.000,496.136,6.3422,6.3438,34.3042,34.3029,34.3016,34.3017,0.34522,0.39,0.41,0.0258,,,1.7167,39.90,38.843,26.9646,26.9624,0.4007,90.4682,4.4605e+00,9.9990e+03,,,,,,,
CalCOFI,0701JD,063,625,28-Jan-2007 5:13:47 AM,27-Jan-2007 9:13:47 PM,34.15082,-121.15084,080.0 060.0,080.0,060.0,491.000,495.126,6.3575,6.3591,34.3033,34.3020,34.3006,34.3007,0.34766,0.39,0.42,0.0253,,,1.7123,39.77,38.703,26.9619,26.9596,0.4008,90.4646,4.5600e+00,9.9990e+03,,,,,,,
CalCOFI,0701JD,063,625,28-Jan-2007 5:13:48 AM,27-Jan-2007 9:13:48 PM,34.15082,-121.15084,080.0 060.0,080.0,060.0,490.000,494.117,6.3668,6.3680,34.3019,34.3006,34.2998,34.2999,0.35285,0.40,0.42,0.0254,,,1.6993,39.39,38.288,26.9596,26.9578,0.4008,90.4643,4.4046e+00,9.9990e+03,,,,,,,
CalCOFI,0701JD,063,625,28-Jan-2007 5:13:49 AM,27-Jan-2007 9:13:49 PM,34.15082,-121.15084,080.0 060.0,080.0,060.0,489.000,493.107,6.3700,6.3707,34.2992,34.2979,34.2972,34.2973,0.35583,0.40,0.43,0.0257,,,1.6958,39.29,38.177,26.9571,26.9554,0.4004,90.4750,4.3442e+00,9.9990e+03,,,,,,,
CalCOFI,0701JD,063,625,28-Jan-2007 5:13:50 AM,27-Jan-2007 9:13:50 PM,34.15082,-121.15084,080.0 060.0,080.0,060.0,488.000,492.098,6.3709,6.3715,34.2968,34.2955,34.2950,34.2951,0.35858,0.40,0.43,0.0250,,,1.6957,39.28,38.173,26.9551,26.9536,0.4004,90.4745,4.2222e+00,9.9990e+03,,,,,,,
CalCOFI,0701JD,063,625,28-Jan-2007 5:13:50 AM,27-Jan-2007 9:13:50 PM,34.15082,-121.15084,080.0 060.0,080.0,060.0,487.000,491.088,6.3726,6.3733,34.2951,34.2938,34.2931,34.2932,0.36068,0.41,0.43,0.0247,,,1.7064,39.60,38.515,26.9534,26.9518,0.4011,90.4578,4.0937e+00,9.9990e+03,,,,,,,
CalCOFI,0701JD,063,625,28-Jan-2007 5:13:51 AM,27-Jan-2007 9:13:51 PM,34.15082,-121.15084,080.0 060.0,080.0,060.0,486.000,490.078,6.3740,6.3748,34.2950,34.2937,34.2931,34.2932,0.36224,0.41,0.43,0.0247,,,1.7192,39.97,38.923,26.9532,26.9516,0.4011,90.4573,4.4023e+00,9.9990e+03,,,,,,,
CalCOFI,0701JD,063,625,28-Jan-2007 5:13:52 AM,27-Jan-2007 9:13:52 PM,34.15082,-121.15084,080.0 060.0,080.0,060.0,485.000,489.069,6.3750,6.3756,34.2940,34.2927,34.2920,34.2921,0.36399,0.41,0.44,0.0256,,,1.6765,38.72,37.561,26.9523,26.9506,0.4005,90.4706,4.4773e+00,9.9990e+03,,,,,,,
CalCOFI,0701JD,063,625,28-Jan-2007 5:13:53 AM,27-Jan-2007 9:13:53 PM,34.15082,-121.15084,080.0 060.0,080.0,060.0,484.000,488.059,6.3752,6.3759,34.2934,34.2921,34.2914,34.2915,0.36684,0.41,0.44,0.0248,,,1.7033,39.51,38.416,26.9518,26.9500,0.4005,90.4726,4.1894e+00,9.9990e+03,,,,,,,
CalCOFI,0701JD,063,625,28-Jan-2007 5:13:54 AM,27-Jan-2007 9:13:54 PM,34.15082,-121.15084,080.0 060.0,080.0,060.0,483.000,487.050,6.3755,6.3762,34.2929,34.2916,34.2909,34.2910,0.36836,0.41,0.44,0.0254,,,1.7085,39.66,38.582,26.9513,26.9496,0.4005,90.4715,4.3556e+00,9.9990e+03,,,,,,,
CalCOFI,0701JD,063,625,28-Jan-2007 5:13:55 AM,27-Jan-2007 9:13:55 PM,34.15082,-121.15084,080.0 060.0,080.0,060.0,482.000,486.040,6.3757,6.3764,34.2928,34.2915,34.2906,34.2907,0.36969,0.42,0.44,0.0247,,,1.7146,39.84,38.776,26.9511,26.9494,0.4004,90.4742,4.5736e+00,9.9990e+03,,,,,,,
CalCOFI,0701JD,063,625,28-Jan-2007 5:13:57 AM,27-Jan-2007 9:13:57 PM,34.15082,-121.15084,080.0 060.0,080.0,060.0,481.000,485.031,6.3755,6.3767,34.2923,34.2910,34.2899,34.2900,0.37299,0.42,0.45,0.0254,,,1.7173,39.92,38.862,26.9508,26.9488,0.3999,90.4862,4.4672e+00,9.9990e+03,,,,,,,
CalCOFI,0701JD,063,625,28-Jan-2007 5:13:59 AM,27-Jan-2007 9:13:59 PM,34.15082,-121.15084,080.0 060.0,080.0,060.0,480.000,484.021,6.3751,6.3758,34.2903,34.2890,34.2884,34.2885,0.37597,0.42,0.45,0.0250,,,1.6969,39.32,38.212,26.9493,26.9476,0.4001,90.4796,4.2005e+00,9.9990e+03,,,,,,,
CalCOFI,0701JD,063,625,28-Jan-2007 5:13:59 AM,27-Jan-2007 9:13:59 PM,34.15082,-121.15084,080.0 060.0,080.0,060.0,479.000,483.012,6.3741,6.3748,34.2888,34.2875,34.2869,34.2870,0.37831,0.43,0.45,0.0247,,,1.7013,39.45,38.352,26.9482,26.9466,0.4002,90.4778,4.6070e+00,9.9990e+03,,,,,,,
CalCOFI,0701JD,063,625,28-Jan-2007 5:14:00 AM,27-Jan-2007 9:14:00 PM,34.15082,-121.15084,080.0 060.0,080.0,060.0,478.000,482.002,6.3734,6.3739,34.2875,34.2862,34.2859,34.2860,0.37998,0.43,0.46,0.0259,,,1.7168,39.90,38.846,26.9472,26.9459,0.4012,90.4565,4.9406e+00,9.9990e+03,,,,,,,
CalCOFI,0701JD,063,625,28-Jan-2007 5:14:00 AM,27-Jan-2007 9:14:00 PM,34.15082,-121.15084,080.0 060.0,080.0,060.0,477.000,480.992,6.3735,6.3741,34.2870,34.2857,34.2853,34.2854,0.38143,0.43,0.46,0.0258,,,1.6861,39.00,37.867,26.9469,26.9454,0.4008,90.4646,4.7387e+00,9.9990e+03,,,,,,,
CalCOFI,0701JD,063,625,28-Jan-2007 5:14:01 AM,27-Jan-2007 9:14:01 PM,34.15082,-121.15084,080.0 060.0,080.0,060.0,476.000,479.983,6.3721,6.3726,34.2862,34.2849,34.2845,34.2846,0.38309,0.43,0.46,0.0252,,,1.6459,37.82,36.585,26.9464,26.9449,0.4011,90.4579,4.7978e+00,9.9990e+03,,,,,,,
CalCOFI,0701JD,063,625,28-Jan-2007 5:14:02 AM,27-Jan-2007 9:14:02 PM,34.15082,-121.15084,080.0 060.0,080.0,060.0,475.000,478.973,6.3724,6.3730,34.2854,34.2841,34.2834,34.2835,0.38579,0.44,0.46,0.0252,,,1.6448,37.79,36.550,26.9457,26.9440,0.4003,90.4754,4.1310e+00,9.9990e+03,,,,,,,
CalCOFI,0701JD,063,625,28-Jan-2007 5:14:03 AM,27-Jan-2007 9:14:03 PM,34.15082,-121.15084,080.0 060.0,080.0,060.0,474.000,477.964,6.3714,6.3721,34.2839,34.2826,34.2817,34.2818,0.38801,0.44,0.47,0.0248,,,1.6912,39.15,38.030,26.9446,26.9428,0.4009,90.4636,4.4044e+00,9.9990e+03,,,,,,,
CalCOFI,0701JD,063,625,28-Jan-2007 5:14:04 AM,27-Jan-2007 9:14:04 PM,34.15082,-121.15084,080.0 060.0,080.0,060.0,473.000,476.954,6.3699,6.3702,34.2818,34.2805,34.2796,34.2797,0.39215,0.44,0.47,0.0250,,,1.7077,39.64,38.556,26.9432,26.9414,0.3997,90.4900,4.6939e+00,9.9990e+03,,,,,,,
CalCOFI,0701JD,063,625,28-Jan-2007 5:14:05 AM,27-Jan-2007 9:14:05 PM,34.15082,-121.15084,080.0 060.0,080.0,060.0,472.000,475.945,6.3690,6.3696,34.2809,34.2796,34.2791,34.2792,0.39557,0.45,0.48,0.0260,,,1.7011,39.44,38.346,26.9425,26.9411,0.3997,90.4905,4.2026e+00,9.9990e+03,,,,,,,
CalCOFI,0701JD,063,625,28-Jan-2007 5:14:06 AM,27-Jan-2007 9:14:06 PM,34.15082,-121.15084,080.0 060.0,080.0,060.0,471.000,474.935,6.3670,6.3676,34.2788,34.2775,34.2772,34.2773,0.40061,0.45,0.48,0.0253,,,1.6907,39.14,38.014,26.9412,26.9398,0.3993,90.4976,4.4145e+00,9.9990e+03,,,,,,,
CalCOFI,0701JD,063,625,28-Jan-2007 5:14:08 AM,27-Jan-2007 9:14:08 PM,34.15082,-121.15084,080.0 060.0,080.0,060.0,470.000,473.926,6.3691,6.3706,34.2750,34.2737,34.2725,34.2726,0.40769,0.46,0.49,0.0253,,,1.7157,39.87,38.811,26.9378,26.9357,0.4001,90.4803,4.5998e+00,9.9990e+03,,,,,,,
CalCOFI,0701JD,063,625,28-Jan-2007 5:14:09 AM,27-Jan-2007 9:14:09 PM,34.15082,-121.15084,080.0 060.0,080.0,060.0,469.000,472.916,6.3839,6.3853,34.2723,34.2710,34.2700,34.2701,0.41273,0.47,0.50,0.0252,,,1.7136,39.81,38.744,26.9337,26.9318,0.4000,90.4828,4.6078e+00,9.9990e+03,,,,,,,
CalCOFI,0701JD,063,625,28-Jan-2007 5:14:10 AM,27-Jan-2007 9:14:10 PM,34.15082,-121.15084,080.0 060.0,080.0,060.0,468.000,471.907,6.3946,6.3955,34.2722,34.2709,34.2700,34.2701,0.41692,0.47,0.50,0.0248,,,1.7225,40.07,39.028,26.9323,26.9304,0.3995,90.4941,4.7635e+00,9.9990e+03,,,,,,,
CalCOFI,0701JD,063,625,28-Jan-2007 5:14:11 AM,27-Jan-2007 9:14:11 PM,34.15082,-121.15084,080.0 060.0,080.0,060.0,467.000,470.897,6.4034,6.4042,34.2722,34.2709,34.2700,34.2701,0.41924,0.48,0.50,0.0249,,,1.7162,39.89,38.827,26.9311,26.9293,0.3997,90.4901,4.5055e+00,9.9990e+03,,,,,,,
CalCOFI,0701JD,063,625,28-Jan-2007 5:14:12 AM,27-Jan-2007 9:14:12 PM,34.15082,-121.15084,080.0 060.0,080.0,060.0,466.000,469.888,6.4118,6.4125,34.2711,34.2698,34.2692,34.2693,0.42232,0.48,0.51,0.0253,,,1.7120,39.76,38.693,26.9292,26.9276,0.3998,90.4866,4.1445e+00,9.9990e+03,,,,,,,
CalCOFI,0701JD,063,625,28-Jan-2007 5:14:13 AM,27-Jan-2007 9:14:13 PM,34.15082,-121.15084,080.0 060.0,080.0,060.0,465.000,468.878,6.4133,6.4138,34.2705,34.2692,34.2687,34.2688,0.42534,0.48,0.51,0.0253,,,1.7070,39.62,38.534,26.9285,26.9270,0.4002,90.4790,4.7966e+00,9.9990e+03,,,,,,,
CalCOFI,0701JD,063,625,28-Jan-2007 5:14:13 AM,27-Jan-2007 9:14:13 PM,34.15082,-121.15084,080.0 060.0,080.0,060.0,464.000,467.869,6.4170,6.4177,34.2702,34.2689,34.2682,34.2683,0.42776,0.49,0.52,0.0255,,,1.6997,39.40,38.301,26.9278,26.9261,0.4002,90.4776,4.0597e+00,9.9990e+03,,,,,,,
CalCOFI,0701JD,063,625,28-Jan-2007 5:14:14 AM,27-Jan-2007 9:14:14 PM,34.15082,-121.15084,080.0 060.0,080.0,060.0,463.000,466.859,6.4275,6.4277,34.2693,34.2680,34.2671,34.2672,0.43116,0.49,0.52,0.0255,,,1.6997,39.40,38.301,26.9257,26.9239,0.4005,90.4723,4.5439e+00,9.9990e+03,,,,,,,
CalCOFI,0701JD,063,625,28-Jan-2007 5:14:15 AM,27-Jan-2007 9:14:15 PM,34.15092,-121.15084,080.0 060.0,080.0,060.0,462.000,465.850,6.4340,6.4358,34.2678,34.2665,34.2655,34.2656,0.43375,0.49,0.52,0.0245,,,1.6801,38.83,37.676,26.9236,26.9216,0.4006,90.4695,3.8457e+00,9.9990e+03,,,,,,,
CalCOFI,0701JD,063,625,28-Jan-2007 5:14:16 AM,27-Jan-2007 9:14:16 PM,34.15100,-121.15084,080.0 060.0,080.0,060.0,461.000,464.840,6.4370,6.4379,34.2669,34.2656,34.2651,34.2652,0.43686,0.50,0.53,0.0249,,,1.6880,39.06,37.928,26.9225,26.9210,0.4005,90.4720,4.5479e+00,9.9990e+03,,,,,,,
CalCOFI,0701JD,063,625,28-Jan-2007 5:14:17 AM,27-Jan-2007 9:14:17 PM,34.15100,-121.15084,080.0 060.0,080.0,060.0,460.000,463.831,6.4461,6.4474,34.2673,34.2660,34.2652,34.2653,0.44046,0.50,0.53,0.0252,,,1.7222,40.06,39.019,26.9217,26.9198,0.4005,90.4715,4.5165e+00,9.9990e+03,,,,,,,
CalCOFI,0701JD,063,625,28-Jan-2007 5:14:19 AM,27-Jan-2007 9:14:19 PM,34.15100,-121.15084,080.0 060.0,080.0,060.0,459.000,462.822,6.4608,6.4635,34.2653,34.2640,34.2630,34.2631,0.44899,0.51,0.54,0.0251,,,1.7336,40.40,39.382,26.9181,26.9159,0.4005,90.4708,4.9007e+00,9.9990e+03,,,,,,,
CalCOFI,0701JD,063,625,28-Jan-2007 5:14:20 AM,27-Jan-2007 9:14:20 PM,34.15100,-121.15084,080.0 060.0,080.0,060.0,458.000,461.812,6.4614,6.4650,34.2607,34.2594,34.2584,34.2585,0.45611,0.52,0.55,0.0252,,,1.7081,39.65,38.569,26.9144,26.9121,0.4006,90.4694,4.4477e+00,9.9990e+03,,,,,,,
CalCOFI,0701JD,063,625,28-Jan-2007 5:14:21 AM,27-Jan-2007 9:14:21 PM,34.15100,-121.15084,080.0 060.0,080.0,060.0,457.000,460.803,6.4583,6.4592,34.2561,34.2548,34.2542,34.2543,0.45988,0.53,0.56,0.0252,,,1.6708,38.55,37.379,26.9112,26.9095,0.4002,90.4787,4.2451e+00,9.9990e+03,,,,,,,
CalCOFI,0701JD,063,625,28-Jan-2007 5:14:22 AM,27-Jan-2007 9:14:22 PM,34.15100,-121.15084,080.0 060.0,080.0,060.0,456.000,459.793,6.4698,6.4702,34.2571,34.2558,34.2547,34.2548,0.46259,0.53,0.56,0.0250,,,1.6820,38.88,37.737,26.9104,26.9085,0.4010,90.4615,4.5097e+00,9.9990e+03,,,,,,,
CalCOFI,0701JD,063,625,28-Jan-2007 5:14:23 AM,27-Jan-2007 9:14:23 PM,34.15100,-121.15084,080.0 060.0,080.0,060.0,455.000,458.784,6.4734,6.4743,34.2569,34.2556,34.2551,34.2552,0.46399,0.53,0.56,0.0250,,,1.6966,39.31,38.202,26.9098,26.9083,0.4019,90.4408,4.1377e+00,9.9990e+03,,,,,,,
CalCOFI,0701JD,063,625,28-Jan-2007 5:14:23 AM,27-Jan-2007 9:14:23 PM,34.15100,-121.15084,080.0 060.0,080.0,060.0,454.000,457.774,6.4736,6.4740,34.2570,34.2557,34.2551,34.2552,0.46605,0.53,0.56,0.0252,,,1.7079,39.64,38.563,26.9098,26.9083,0.4004,90.4745,4.1602e+00,9.9990e+03,,,,,,,
CalCOFI,0701JD,063,625,28-Jan-2007 5:14:24 AM,27-Jan-2007 9:14:24 PM,34.15100,-121.15084,080.0 060.0,080.0,060.0,453.000,456.765,6.4902,6.4952,34.2604,34.2591,34.2577,34.2578,0.46693,0.54,0.56,0.0251,,,1.6892,39.09,37.966,26.9103,26.9075,0.4001,90.4804,4.5931e+00,9.9990e+03,,,,,,,
CalCOFI,0701JD,063,625,28-Jan-2007 5:14:25 AM,27-Jan-2007 9:14:25 PM,34.15100,-121.15084,080.0 060.0,080.0,060.0,452.000,455.755,6.5069,6.5062,34.2610,34.2597,34.2588,34.2589,0.46705,0.54,0.56,0.0249,,,1.6847,38.96,37.823,26.9085,26.9069,0.4005,90.4721,4.4270e+00,9.9990e+03,,,,,,,
CalCOFI,0701JD,063,625,28-Jan-2007 5:14:26 AM,27-Jan-2007 9:14:26 PM,34.15100,-121.15084,080.0 060.0,080.0,060.0,451.000,454.746,6.5117,6.5054,34.2616,34.2603,34.2591,34.2592,0.46778,0.54,0.57,0.0250,,,1.6911,39.15,38.027,26.9084,26.9072,0.4009,90.4618,4.4461e+00,9.9990e+03,,,,,,,
CalCOFI,0701JD,063,625,28-Jan-2007 5:14:28 AM,27-Jan-2007 9:14:28 PM,34.15100,-121.15084,080.0 060.0,080.0,060.0,450.000,453.737,6.5175,6.5148,34.2618,34.2605,34.2597,34.2598,0.46900,0.54,0.57,0.0256,,,1.6929,39.20,38.084,26.9078,26.9065,0.4003,90.4765,4.2971e+00,9.9990e+03,,,,,,,
CalCOFI,0701JD,063,625,28-Jan-2007 5:14:28 AM,27-Jan-2007 9:14:28 PM,34.15100,-121.15084,080.0 060.0,080.0,060.0,449.000,452.727,6.5339,6.5346,34.2637,34.2624,34.2613,34.2614,0.46868,0.54,0.57,0.0252,,,1.7089,39.67,38.594,26.9072,26.9052,0.4005,90.4718,4.0878e+00,9.9990e+03,,,,,,,
CalCOFI,0701JD,063,625,28-Jan-2007 5:14:30 AM,27-Jan-2007 9:14:30 PM,34.15100,-121.15084,080.0 060.0,080.0,060.0,448.000,451.718,6.5380,6.5387,34.2635,34.2622,34.2617,34.2618,0.46970,0.54,0.57,0.0245,,,1.7163,39.89,38.830,26.9064,26.9049,0.3998,90.4869,4.2224e+00,9.9990e+03,,,,,,,
CalCOFI,0701JD,063,625,28-Jan-2007 5:14:31 AM,27-Jan-2007 9:14:31 PM,34.15100,-121.15084,080.0 060.0,080.0,060.0,447.000,450.709,6.5374,6.5381,34.2629,34.2616,34.2615,34.2616,0.46999,0.54,0.57,0.0253,,,1.7008,39.43,38.336,26.9060,26.9048,0.4006,90.4700,4.5935e+00,9.9990e+03,,,,,,,
CalCOFI,0701JD,063,625,28-Jan-2007 5:14:32 AM,27-Jan-2007 9:14:32 PM,34.15100,-121.15084,080.0 060.0,080.0,060.0,446.000,449.699,6.5358,6.5366,34.2623,34.2610,34.2607,34.2608,0.47094,0.54,0.57,0.0254,,,1.6858,38.99,37.858,26.9057,26.9043,0.4006,90.4695,4.2795e+00,9.9990e+03,,,,,,,
CalCOFI,0701JD,063,625,28-Jan-2007 5:14:33 AM,27-Jan-2007 9:14:33 PM,34.15100,-121.15084,080.0 060.0,080.0,060.0,445.000,448.690,6.5400,6.5406,34.2620,34.2607,34.2600,34.2601,0.47311,0.54,0.57,0.0251,,,1.7016,39.46,38.362,26.9050,26.9033,0.4002,90.4795,4.2569e+00,9.9990e+03,,,,,,,
CalCOFI,0701JD,063,625,28-Jan-2007 5:14:34 AM,27-Jan-2007 9:14:34 PM,34.15100,-121.15084,080.0 060.0,080.0,060.0,444.000,447.680,6.5434,6.5440,34.2614,34.2601,34.2598,34.2599,0.47422,0.54,0.57,0.0252,,,1.7118,39.76,38.687,26.9040,26.9027,0.3996,90.4914,4.0874e+00,9.9990e+03,,,,,,,
CalCOFI,0701JD,063,625,28-Jan-2007 5:14:35 AM,27-Jan-2007 9:14:35 PM,34.15100,-121.15084,080.0 060.0,080.0,060.0,443.000,446.671,6.5438,6.5443,34.2609,34.2596,34.2594,34.2595,0.47527,0.55,0.58,0.0296,,,1.6698,38.52,37.347,26.9035,26.9023,0.4012,90.4567,4.5095e+00,9.9990e+03,,,,,,,
CalCOFI,0701JD,063,625,28-Jan-2007 5:14:36 AM,27-Jan-2007 9:14:36 PM,34.15100,-121.15084,080.0 060.0,080.0,060.0,442.000,445.662,6.5439,6.5445,34.2601,34.2588,34.2585,34.2586,0.47753,0.55,0.58,0.0257,,,1.7487,40.84,39.864,26.9029,26.9015,0.4014,90.4504,4.5075e+00,9.9990e+03,,,,,,,
CalCOFI,0701JD,063,625,28-Jan-2007 5:14:37 AM,27-Jan-2007 9:14:37 PM,34.15100,-121.15084,080.0 060.0,080.0,060.0,441.000,444.652,6.5429,6.5436,34.2594,34.2581,34.2579,34.2580,0.47887,0.55,0.58,0.0249,,,1.6717,38.58,37.408,26.9024,26.9012,0.4015,90.4491,4.3871e+00,9.9990e+03,,,,,,,
CalCOFI,0701JD,063,625,28-Jan-2007 5:14:37 AM,27-Jan-2007 9:14:37 PM,34.15100,-121.15084,080.0 060.0,080.0,060.0,440.000,443.643,6.5464,6.5469,34.2592,34.2579,34.2574,34.2575,0.48050,0.55,0.58,-9.990e-29,,,1.6773,38.74,37.587,26.9018,26.9003,0.4007,90.4683,4.2026e+00,9.9990e+03,,,,,,,
CalCOFI,0701JD,063,625,28-Jan-2007 5:14:38 AM,27-Jan-2007 9:14:38 PM,34.15100,-121.15084,080.0 060.0,080.0,060.0,439.000,442.634,6.5517,6.5523,34.2586,34.2573,34.2570,34.2571,0.48221,0.55,0.58,-9.990e-29,,,1.6880,39.06,37.928,26.9007,26.8993,0.4003,90.4761,4.0722e+00,9.9990e+03,,,,,,,
CalCOFI,0701JD,063,625,28-Jan-2007 5:14:39 AM,27-Jan-2007 9:14:39 PM,34.15100,-121.15084,080.0 060.0,080.0,060.0,438.000,441.624,6.5541,6.5548,34.2583,34.2570,34.2567,34.2568,0.48247,0.55,0.58,-9.990e-29,,,1.7070,39.62,38.534,26.9000,26.8987,0.4006,90.4704,4.4896e+00,9.9990e+03,,,,,,,
CalCOFI,0701JD,063,625,28-Jan-2007 5:14:42 AM,27-Jan-2007 9:14:42 PM,34.15100,-121.15084,080.0 060.0,080.0,060.0,437.000,440.615,6.5478,6.5487,34.2591,34.2578,34.2574,34.2575,0.48142,0.55,0.58,0.0250,,,1.7073,39.63,38.543,26.9015,26.9001,0.4005,90.4727,4.3495e+00,9.9990e+03,437,6.55 ,34.257,  .54,,,38.1
CalCOFI,0701JD,063,625,28-Jan-2007 5:15:26 AM,27-Jan-2007 9:15:26 PM,34.15100,-121.15084,080.0 060.0,080.0,060.0,436.000,439.605,6.5524,6.5532,34.2593,34.2580,34.2576,34.2577,0.48544,0.56,0.59,0.0252,,,1.7034,39.51,38.419,26.9010,26.8997,0.4006,90.4689,4.6563e+00,9.9990e+03,,,,,,,
CalCOFI,0701JD,063,625,28-Jan-2007 5:15:56 AM,27-Jan-2007 9:15:56 PM,34.15100,-121.15084,080.0 060.0,080.0,060.0,435.000,438.596,6.5536,6.5543,34.2591,34.2578,34.2577,34.2578,0.48577,0.56,0.59,0.0250,,,1.6716,38.58,37.405,26.9008,26.8995,0.4003,90.4765,4.7476e+00,9.9990e+03,,,,,,,
CalCOFI,0701JD,063,625,28-Jan-2007 5:15:56 AM,27-Jan-2007 9:15:56 PM,34.15100,-121.15084,080.0 060.0,080.0,060.0,434.000,437.587,6.5550,6.5556,34.2583,34.2570,34.2568,34.2569,0.48783,0.56,0.59,0.0281,,,1.6728,38.61,37.443,26.8999,26.8987,0.4008,90.4643,4.6741e+00,9.9990e+03,,,,,,,
CalCOFI,0701JD,063,625,28-Jan-2007 5:15:56 AM,27-Jan-2007 9:15:56 PM,34.15100,-121.15084,080.0 060.0,080.0,060.0,433.000,436.578,6.5608,6.5613,34.2582,34.2569,34.2566,34.2567,0.48858,0.56,0.59,0.0253,,,1.6866,39.02,37.883,26.8990,26.8977,0.4007,90.4663,4.8976e+00,9.9990e+03,,,,,,,
CalCOFI,0701JD,063,625,28-Jan-2007 5:15:57 AM,27-Jan-2007 9:15:57 PM,34.15100,-121.15084,080.0 060.0,080.0,060.0,432.000,435.568,6.5619,6.5625,34.2577,34.2564,34.2564,34.2565,0.48956,0.56,0.59,0.0255,,,1.6834,38.92,37.781,26.8985,26.8974,0.4007,90.4663,4.5058e+00,9.9990e+03,,,,,,,